sat.trackr.live / text

‹ back to catalog

STARLINK-11276 [DTC]

NORAD 61244 · 2024-175B

PAYLOAD ACTIVE UNKNOWN

§ Identity

Operator
Country
US
Launch date
2024-09-25
Launch site
AFWTR
Launch vehicle
Mass (kg)
RCS (m²)

Purposes: comms

External: N2YO · Heavens-Above · Gunter

§ Orbital elements

Epoch: 2026-09-21T06:15:51.130944Z

Period
91.74 min
Inclination
53.1601°
Eccentricity
0.0001130
Mean motion
15.69706588 rev/d
Perigee alt
359.0 km
Apogee alt
360.5 km
Semi-major
6,737.9 km
B*
8.9504e-6
RAAN
172.1381°
Arg perigee
86.1826°
Mean anomaly
273.9321°
Rev number
11,408

§ Raw data

STARLINK-11276 [DTC]1 61244U 24175B   26264.26100846  .00000496  00000+0  89504-5 0  99922 61244  53.1601 172.1381 0001130  86.1826 273.9321 15.69706588114080

JSON: /api/v1/satellites/61244 · /tle

For live sub-satellite position, see the globe view (requires WebGL).

§ Visibility from observer

Set your observer location to see the next 7 days of passes ≥ 10°. The values pass through the URL so the page stays shareable.

No JS? Fill the form by hand. The geolocation button needs JavaScript.